Location: Carrizalito
(10.3833°N, 67.0217°W)
Time: 09:28:27
(UTC+00:00)

Meteor 1-11 Rocket - Pass Details

Date: 11 July 2022
Orbit: 830 x 916 km, 81.2° (Epoch: 14 August)

Event Time Altitude Azimuth Distance (km) Brightness Sun altitude
Exits shadow 08:35:20 22° 300° (WNW) 1,861 5.2 -22.5°
Drops below altitude 10° 08:38:32 10° 331° (NNW) 2,581 6.2 -21.8°
Sets 08:41:27 0° 344° (NNW) 3,510 7.1 -21.1°
